EW8410 Weather Reports


time (UTC)temp
F
wind
direction
speed
knots
gust
knots
rain 1hr
in
rain 24hr
in
rain mn
in
humidity
%
barometer
mb
20260505031803 51 154 1.7 6.1 0.00 0.00 0.00 83 1010.4
20260505031501 51 232 0.9 6.1 0.00 0.00 0.00 83 1010.7
20260505030902 51 185 1.7 7.0 0.00 0.00 0.00 83 1010.5
20260505030027 51 180 1.7 7.8 0.00 0.00 0.00 83 1010.8
20260505030001 52 178 1.7 7.8 0.00 0.00 0.00 83 1010.5
20260505025401 52 165 0.9 7.8 0.00 0.00 0.00 83 1010.5
20260505024509 51 207 0.0 7.0 0.00 0.00 0.00 83 1010.8
20260505024501 52 191 0.9 7.0 0.00 0.00 0.00 83 1010.6
20260505023601 52 168 1.7 5.2 0.00 0.00 0.00 83 1010.6
20260505023005 51 139 1.7 5.2 0.00 0.00 0.00 82 1010.8
20260505022702 52 159 0.9 6.1 0.00 0.00 0.00 82 1010.5
20260505021801 52 175 0.9 6.1 0.00 0.00 0.00 82 1010.6
20260505021502 51 223 0.9 5.2 0.00 0.00 0.00 82 1011.0
20260505020902 52 155 0.9 6.1 0.00 0.00 0.00 82 1010.7
20260505020009 51 163 0.9 7.0 0.00 0.00 0.00 81 1010.9
20260505020002 52 166 1.7 8.7 0.00 0.00 0.00 81 1010.7
20260505015402 52 199 1.7 7.8 0.00 0.00 0.00 81 1010.6
20260505014510 51 191 0.0 7.0 0.00 0.00 0.00 81 1010.8
20260505014502 52 181 1.7 8.7 0.00 0.00 0.00 81 1010.6
20260505013602 52 187 2.6 10.4 0.00 0.00 0.00 81 1010.6
20260505013007 52 166 3.5 10.4 0.00 0.00 0.00 80 1010.7
20260505012723 52 181 1.7 11.3 0.00 0.00 0.00 80 1010.4
20260505011802 52 179 1.7 7.8 0.00 0.00 0.00 79 1010.3
20260505011507 52 211 2.6 7.0 0.00 0.00 0.00 79 1010.6
20260505010902 52 178 2.6 7.8 0.00 0.00 0.00 79 1010.2
20260505010005 52 345 2.6 8.7 0.00 0.00 0.00 78 1010.3
20260505010002 52 168 1.7 8.7 0.00 0.00 0.00 78 1010.0
20260505005402 52 170 2.6 8.7 0.00 0.00 0.00 77 1009.9
20260505004511 52 146 2.6 9.6 0.00 0.00 0.00 77 1010.1
20260505004502 53 168 1.7 9.6 0.00 0.00 0.00 77 1009.8
20260505003602 53 175 2.6 10.4 0.00 0.00 0.00 76 1009.5
20260505003001 53 217 3.5 11.3 0.00 0.00 0.00 75 1009.8
20260505002702 53 193 2.6 11.3 0.00 0.00 0.00 75 1009.5
20260505001802 54 171 2.6 8.7 0.00 0.00 0.00 74 1009.3
20260505001509 53 131 1.7 8.7 0.00 0.00 0.00 73 1009.5
20260505000902 54 184 2.6 8.7 0.00 0.00 0.00 73 1009.2
20260505000009 54 139 1.7 14.8 0.00 0.00 0.00 72 1009.3
20260505000002 54 184 2.6 14.8 0.00 0.00 0.00 72 1009.0
20260504235423 55 176 2.6 14.8 0.00 0.00 0.00 72 1009.0
20260504234506 55 209 2.6 13.0 0.00 0.00 0.00 71 1009.1
20260504234502 55 174 2.6 13.0 0.00 0.00 0.00 71 1008.8
20260504233623 55 146 2.6 10.4 0.00 0.00 0.00 71 1008.9
20260504233005 55 136 3.5 12.2 0.00 0.00 0.00 70 1009.1
20260504232702 56 187 3.5 13.9 0.00 0.00 0.00 70 1008.9
20260504231802 56 166 3.5 13.9 0.00 0.00 0.00 68 1008.8
20260504231507 55 178 1.7 13.9 0.00 0.00 0.00 68 1009.0
20260504230902 56 166 4.3 12.2 0.00 0.00 0.00 67 1008.6
20260504230023 56 176 4.3 12.2 0.00 0.00 0.00 67 1008.6
20260504230007 56 190 4.3 12.2 0.00 0.00 0.00 67 1008.8
20260504225402 56 190 3.5 13.0 0.00 0.00 0.00 66 1008.6
20260504224505 56 252 2.6 13.0 0.00 0.00 0.00 65 1008.8
20260504224502 57 169 3.5 13.0 0.00 0.00 0.00 65 1008.5
20260504223602 57 188 3.5 12.2 0.00 0.00 0.00 64 1008.4
20260504223001 57 209 5.2 12.2 0.00 0.00 0.00 63 1008.7
20260504222702 58 191 4.3 13.0 0.00 0.00 0.00 62 1008.4
20260504221802 59 182 3.5 13.0 0.00 0.00 0.00 60 1008.5
20260504221507 58 224 3.5 10.4 0.00 0.00 0.00 59 1008.8
20260504220902 60 174 2.6 13.0 0.00 0.00 0.00 57 1008.5
20260504220004 60 172 3.5 13.0 0.00 0.00 0.00 55 1008.8
20260504220002 60 207 4.3 13.0 0.00 0.00 0.00 55 1008.5
20260504215402 61 185 3.5 15.6 0.00 0.00 0.00 52 1008.4
20260504214511 60 155 3.5 13.9 0.00 0.00 0.00 52 1008.7
20260504214502 61 183 3.5 13.0 0.00 0.00 0.00 52 1008.4
20260504213602 61 179 4.3 13.0 0.00 0.00 0.00 50 1008.4
20260504213026 61 207 1.7 14.8 0.00 0.00 0.00 50 1008.6
20260504212702 62 186 4.3 16.5 0.00 0.00 0.00 50 1008.4
20260504211802 62 188 5.2 16.5 0.00 0.00 0.00 48 1008.2
20260504211510 62 202 6.1 16.5 0.00 0.00 0.00 47 1008.6
20260504210903 62 191 4.3 16.5 0.00 0.00 0.00 47 1008.3
20260504210005 63 205 4.3 10.4 0.00 0.00 0.00 48 1008.6
20260504210003 63 164 3.5 11.3 0.00 0.00 0.00 48 1008.3
20260504205403 63 181 4.3 11.3 0.00 0.00 0.00 48 1008.3
20260504204505 63 166 3.5 15.6 0.00 0.00 0.00 49 1008.6
20260504204502 64 187 4.3 15.6 0.00 0.00 0.00 49 1008.3
20260504203603 64 186 3.5 12.2 0.00 0.00 0.00 49 1008.1
20260504203010 64 184 5.2 12.2 0.00 0.00 0.00 50 1008.5
20260504202702 64 185 3.5 12.2 0.00 0.00 0.00 52 1008.1
20260504201803 64 195 3.5 11.3 0.00 0.00 0.00 51 1008.0
20260504201509 64 197 1.7 10.4 0.00 0.00 0.00 50 1008.4
20260504200903 64 198 4.3 10.4 0.00 0.00 0.00 49 1008.1
20260504200008 64 82 1.7 13.0 0.00 0.00 0.00 48 1008.4
20260504200003 65 198 4.3 13.0 0.00 0.00 0.00 48 1008.1
20260504195403 65 199 4.3 13.0 0.00 0.00 0.00 49 1008.1
20260504194524 65 189 3.5 9.6 0.00 0.00 0.00 49 1008.1
20260504194510 64 254 2.6 9.6 0.00 0.00 0.00 49 1008.4
20260504193603 65 188 4.3 12.2 0.00 0.00 0.00 48 1008.1
20260504193103 65 163 6.1 13.9 0.00 0.00 0.00 46 1008.4
20260504192703 66 188 4.3 13.9 0.00 0.00 0.00 44 1008.2
20260504191824 66 207 6.1 13.9 0.00 0.00 0.00 42 1008.2
20260504191510 66 164 5.2 13.0 0.00 0.00 0.00 40 1008.5
20260504190903 67 199 4.3 11.3 0.00 0.00 0.00 43 1008.3
20260504190007 66 165 4.3 13.9 0.00 0.00 0.00 45 1008.7
20260504190003 66 189 4.3 16.5 0.00 0.00 0.00 45 1008.5
20260504185403 66 206 5.2 18.2 0.00 0.00 0.00 42 1008.5
20260504184517 66 173 3.5 18.2 0.00 0.00 0.00 40 1008.9
20260504184503 67 179 4.3 15.6 0.00 0.00 0.00 40 1008.6
20260504183603 67 195 4.3 14.8 0.00 0.00 0.00 40 1008.8
20260504183003 66 229 6.1 13.0 0.00 0.00 0.00 40 1009.1
20260504182703 67 199 4.3 17.4 0.00 0.00 0.00 41 1008.7
20260504181803 66 192 6.1 17.4 0.00 0.00 0.00 38 1008.7
20260504181612 66 219 6.1 17.4 0.00 0.00 0.00 38 1009.1
20260504180901 67 184 4.3 14.8 0.00 0.00 0.00 40 1008.9
20260504180106 66 171 2.6 13.0 0.00 0.00 0.00 43 1009.0
20260504180022 67 196 3.5 13.0 0.00 0.00 0.00 43 1008.8
20260504175401 67 178 3.5 13.9 0.00 0.00 0.00 44 1008.7
20260504174522 67 211 2.6 13.9 0.00 0.00 0.00 46 1008.8
20260504174510 66 355 2.6 11.3 0.00 0.00 0.00 46 1009.1
20260504173622 66 178 4.3 20.0 0.00 0.00 0.00 46 1008.8
20260504173013 66 219 4.3 20.0 0.00 0.00 0.00 43 1009.0
20260504172701 66 182 5.2 15.6 0.00 0.00 0.00 46 1008.8
20260504171802 67 198 5.2 15.6 0.00 0.00 0.00 45 1008.8
20260504171503 66 126 3.5 14.8 0.00 0.00 0.00 46 1009.1
20260504170902 67 176 3.5 11.3 0.00 0.00 0.00 43 1008.9
20260504150902 67 216 3.5 16.5 0.00 0.00 0.00 36 1009.6
20260504140902 64 197 1.7 9.6 0.00 0.00 0.00 42 1010.1
20260504081802 48 167 0.0 1.7 0.00 0.00 0.00 66 1010.1
20260504081501 47 168 0.0 1.7 0.00 0.00 0.00 66 1010.4
20260504080901 48 172 0.0 1.7 0.00 0.00 0.00 66 1010.0
20260504050011 44 138 0.0 1.7 0.00 0.00 0.00 67 1010.0
20260504050002 45 104 0.0 1.7 0.00 0.00 0.00 67 1009.7
20260504045402 45 69 0.0 1.7 0.00 0.00 0.00 67 1009.8
20260504044506 45 80 0.0 1.7 0.00 0.00 0.00 66 1010.2
20260504044502 45 54 0.0 1.7 0.00 0.00 0.00 66 1009.8
20260504043603 45 127 0.0 2.6 0.00 0.00 0.00 66 1009.9
20260504043112 44 128 0.0 0.9 0.00 0.00 0.00 66 1010.2
20260504042702 44 88 0.0 1.7 0.00 0.00 0.00 65 1009.8
20260504041802 44 103 0.0 1.7 0.00 0.00 0.00 65 1009.8
20260504041507 44 143 0.0 1.7 0.00 0.00 0.00 64 1010.1
20260504040902 44 62 0.0 1.7 0.00 0.00 0.00 64 1009.8
20260504040006 43 103 0.0 1.7 0.00 0.00 0.00 64 1010.1
20260504040003 43 89 0.0 1.7 0.00 0.00 0.00 64 1009.7
20260504035402 43 192 0.0 1.7 0.00 0.00 0.00 64 1009.7
20260504034517 42 69 0.0 1.7 0.00 0.00 0.00 62 1009.9
20260504034502 43 84 0.0 2.6 0.00 0.00 0.00 62 1009.6
20260504033602 42 130 0.0 2.6 0.00 0.00 0.00 62 1009.5
20260504033006 42 150 0.0 1.7 0.00 0.00 0.00 64 1009.8
20260504032702 42 110 0.0 1.7 0.00 0.00 0.00 63 1009.4